Location: ?astrovice
(49.6513°N, 14.9287°E)
Time: 18:36:41
(UTC+00:00)

Cosmos 676 Rocket - Pass Details

Date: 09 April 2020
Orbit: 755 x 783 km, 74.0° (Epoch: 24 May)

Event Time Altitude Azimuth Distance (km) Brightness Sun altitude
Rises 19:07:09 0° 193° (SSW) 3,242 7.1 -13.2°
Reaches altitude 10° 19:09:33 10° 191° (SSW) 2,315 6.3 -13.5°
Maximum altitude 19:14:46 68° 109° (ESE) 828 3.9 -14.2°
Drops below altitude 10° 19:19:58 10° 28° (NNE) 2,313 6.5 -15.0°
Sets 19:22:21 0° 26° (NNE) 3,239 7.3 -15.3°
